Location: 10048 Water Well
(33.8501°N, 106.8364°W)
Time: 17:20:24
(UTC+00:00)

Cosmos 1627 Rocket - Visible Passes

Search period start: 07 March 2026 00:00
Search period end: 17 March 2026 00:00
Orbit: 949 x 1004 km, 82.9° (Epoch: 7 March)

Date Brightness Start Highest point End Pass type
(mag) Time Alt. Az. Time Alt. Az. Time Alt. Az.
7 Mar 4.8 01:41:44 10° SSE 01:47:37 43° E 01:53:27 10° NNE visible
7 Mar 6.7 03:28:09 10° SW 03:33:06 24° WNW 03:38:02 10° NNW visible
7 Mar 6.7 12:42:21 10° NNE 12:47:35 29° ENE 12:52:48 10° SE visible
8 Mar 4.5 02:06:46 10° S 02:13:05 82° E 02:19:21 10° N visible
8 Mar 7.5 03:56:56 10° W 03:59:09 12° WNW 04:01:21 10° NW visible
9 Mar 5.3 02:32:35 10° SSW 02:38:43 53° W 02:44:48 10° N visible
9 Mar 7.6 11:50:33 10° NE 11:52:57 12° ENE 11:55:21 10° E visible
10 Mar 6.5 02:59:14 10° SW 03:04:31 28° WNW 03:09:46 10° NNW visible
10 Mar 6.9 12:14:04 10° NNE 12:18:58 25° ENE 12:23:52 10° SE visible
11 Mar 4.5 01:38:20 10° S 01:44:35 70° E 01:50:47 10° N visible
11 Mar 7.4 03:27:19 10° WSW 03:30:29 14° WNW 03:33:40 10° NW visible
11 Mar 5.6 12:38:54 10° N 12:44:47 48° E 12:50:39 10° SSE visible
12 Mar 5.1 02:03:58 10° SSW 02:10:10 62° W 02:16:21 10° N visible
12 Mar 7.8 11:23:53 10° ENE 11:24:17 10° ENE 11:24:41 10° ENE visible
13 Mar 6.4 02:30:23 10° SW 02:35:55 32° WNW 02:41:25 10° NNW visible
13 Mar 7.0 11:45:50 10° NNE 11:50:21 21° ENE 11:54:51 10° ESE visible
14 Mar 7.4 02:58:00 10° WSW 03:01:51 17° WNW 03:05:42 10° NW visible
14 Mar 5.9 12:10:29 10° N 12:16:12 41° E 12:21:55 10° SSE visible
15 Mar 4.9 01:35:22 10° SSW 01:41:38 72° W 01:47:50 10° N visible
15 Mar 4.7 12:35:46 10° N 12:41:53 79° E 12:48:01 10° S visible
16 Mar 6.2 02:01:36 10° SW 02:07:20 37° WNW 02:13:02 10° NNW visible
16 Mar 7.2 11:17:40 10° NNE 11:21:42 18° ENE 11:25:44 10° ESE visible
